Regional Weather Roundup
Issued by NWS Goodland, KS

Home | Current Version | Previous Version | Text Only | Print | Product List | Glossary Off
Versions: 1 2 3 4 5 6 7 8 9 10 11 12 13 14 15 16 17 18 19 20 21 22 23 24 25 26 27 28 29 30 31 32 33 34 35 36 37 38 39 40 41 42 43 44 45 46 47 48 49 50

000
ASUS43 KGLD 241408
RWRGLD

GOODLAND FORECAST AREA HOURLY WEATHER ROUNDUP
NATIONAL WEATHER SERVICE GOODLAND KS
800 AM MDT THU APR 24 2014

...OFFICIAL OBSERVATIONS...

CITY           SKY/WX    TMP DP  RH WIND       PRES   REMARKS
GOODLAND KS    MOSUNNY   49  28  44 NW23      29.96R
HILL CITY KS   CLOUDY    53  40  61 NW15      29.85R
IMPERIAL NEB   MOSUNNY   49  32  52 NW21G28   29.92R
MCCOOK NEB     PTSUNNY   54  36  50 NW21      29.88R
AKRON CO       SUNNY     43  21  41 NW16      29.99R
BURLINGTON CO  SUNNY     48  18  30 NW25G31   29.98R
LIMON CO       SUNNY     40  20  44 NW15      30.03R
$$

...UNOFFICIAL OBSERVATIONS...

CITY           SKY/WX    TMP DP  RH WIND       PRES   REMARKS
COLBY KS       SUNNY     52  39  62 NW18      29.92S
LENORA KS        N/A     51  32  48 NW20        N/A
LEOTI KS         N/A     51  32  47 NW10        N/A
NORTON KS      SUNNY     52  41  66 W15       29.84R
OBERLIN KS     FAIR      55  36  47 NW21      29.89R
SHARON SPRINGS   N/A     49  30  48 NW15G23     N/A
ST FRANCIS KS  MOSUNNY   50  21  32 NW16      29.95R
TRIBUNE KS     MOSUNNY   52  27  37 NW21G28   29.97R
WAKEENEY KS      N/A     52  38  57 MISG        N/A
TRENTON NEB      N/A     50  32  50 W18         N/A
KIT CARSON CO    N/A     47  21  35 MISG        N/A
$$



USA.gov is the U.S. government's official web portal to all federal, state and local government web resources and services.